Weather Roundup
Issued by NWS

Home | Current Version | Previous Version | Text Only | Print | Product List | Glossary On
Versions: 1 2 3 4 5 6 7 8 9 10 11 12 13 14 15 16 17 18 19 20 21 22 23 24 25 26 27 28 29 30 31 32 33 34 35 36 37 38 39 40 41 42 43 44 45 46 47 48 49 50
000
NZUS93 KARX 131610
HRRWXR

CURRENT HOURLY OBSERVATIONS ACROSS
MUCH OF THE UPPER MISSISSIPPI VALLEY
NATIONAL WEATHER SERVICE LA CROSSE WI
1100 AM CDT SUN JUL 13 2014


...SOUTHEAST MINNESOTA...


CITY           SKY/WX    TMP DP  RH WIND       PRES   REMARKS
ROCHESTER      SUNNY     72  61  68 NW8       29.99F
ROCHESTER/MAYO FAIR      71  56  59 NW7       29.98S
WINONA         SUNNY     73  59  60 NW7       29.96S
AUSTIN         SUNNY     73  57  56 NW13      29.99S
ALBERT LEA     SUNNY     73  59  60 W10G20    30.00S
DODGE CENTER   MOSUNNY   72  61  68 NW10G16   29.99S
PRESTON        SUNNY     72  65  77 W9        29.99S
OWATONNA       MOSUNNY   72  57  60 NW14      30.00R
FARIBAULT      MOSUNNY   75  54  46 NW6       30.00S
$$

...ELSEWHERE IN MINNESOTA...


CITY           SKY/WX    TMP DP  RH WIND       PRES   REMARKS
MINNEAPOLIS    SUNNY     71  50  47 W7        29.98S
INTNL FALLS    CLOUDY    64  48  56 W12G24    29.82F
DULUTH         MOSUNNY   66  48  52 W10       29.90F
RED WING       SUNNY     72  48  43 CALM      29.96S
REDWOOD FALLS  SUNNY     71  55  56 W8        30.01S
MANKATO        SUNNY     72  54  53 NW14      30.00S
WORTHINGTON    SUNNY     72  55  56 W5        30.07S
FAIRMONT       SUNNY     75  54  46 N12       30.02S
$$

...SOUTHWEST WISCONSIN...


CITY           SKY/WX    TMP DP  RH WIND       PRES   REMARKS
LA CROSSE      SUNNY     76  64  66 NW9       29.93F
PRAIRIE DU CHI MOSUNNY   77  65  67 W9        29.95S
BOSCOBEL       PTSUNNY   78  67  68 W8G17     29.94F
LONE ROCK      PTSUNNY   79  67  66 W13       29.94S
PLATTEVILLE    MOSUNNY   75  69  80 W10       29.98S
FORT MC COY    MOSUNNY   73  60  64 NW12G20   29.94S
CAMP DOUGLAS   PTSUNNY   72  68  88 NW10G20   29.93S
VIROQUA        PTSUNNY   72  67  82 W10       29.97S
WIS DELLS      CLOUDY    73  64  73 NW7G16    29.93S
$$

...ELSEWHERE IN WISCONSIN...


CITY           SKY/WX    TMP DP  RH WIND       PRES   REMARKS
MILWAUKEE      MOSUNNY   78  61  55 W10       29.91S
MADISON        MOSUNNY   78  64  61 W9        29.93S
GREEN BAY      PTSUNNY   75  62  64 W16       29.87R
EAU CLAIRE     SUNNY     70  49  47 NW8       29.95R
BLACK RVR FLS  FAIR      72  49  44 N7        29.94S
MEDFORD        SUNNY     65  47  51 NW12      29.93S
WAUSAU         SUNNY     70  51  51 NW9       29.90S
WIS RAPIDS     SUNNY     73  57  57 NW12      29.93S
MARSHFIELD     SUNNY     69  51  52 NW12      29.93S
RICE LAKE      SUNNY     66  48  51 W5        29.97S
$$

...NORTHEAST IOWA...


CITY           SKY/WX    TMP DP  RH WIND       PRES   REMARKS
WATERLOO       PTSUNNY   78  68  71 W14       29.98F
DUBUQUE        SUNNY     74  67  78 W12       29.98F
DECORAH          N/A    N/A N/A N/A MISG        N/A
MASON CITY     SUNNY     76  65  68 W12       30.02S
CHARLES CITY   MOSUNNY   75  66  73 NW10G18   30.00S
OELWEIN        CLOUDY    75  75 100 W9G17     30.00S
$$

...ELSEWHERE IN IOWA...


CITY           SKY/WX    TMP DP  RH WIND       PRES   REMARKS
DES MOINES     MOSUNNY   81  69  67 W7        30.01F
IOWA CITY      SUNNY     75  68  78 W7        30.01S
FORT DODGE     CLOUDY    77  68  73 NW9       30.03F
MARSHALLTOWN   SUNNY     77  70  79 NW12      30.01S
CEDAR RAPIDS   PTSUNNY   77  69  76 W8        29.99F
$$

...NORTHERN ILLINOIS...


CITY           SKY/WX    TMP DP  RH WIND       PRES   REMARKS
CHICAGO-OHARE  MOSUNNY   76  64  66 W9        29.94S
DUPAGE         MOSUNNY   75  66  73 W10       29.95S
CHICAGO-MIDWAY PTSUNNY   75  67  76 SW9       29.94S
MOLINE         MOSUNNY   76  67  73 W5        29.98F
ROCKFORD       MOSUNNY   75  65  70 W7        29.98S
STERLING       MOSUNNY   75  68  78 NW9       29.98S
PEORIA         PTSUNNY   77  67  71 N8        29.99R
$$

NOTE: "FAIR" INDICATES FEW OR NO CLOUDS BELOW 12,000 FEET WITH NO
SIGNIFICANT WEATHER AND/OR OBSTRUCTIONS TO VISIBILITY. WIND
SPEEDS ARE IN MILES-PER-HOUR.



USA.gov is the U.S. government's official web portal to all federal, state and local government web resources and services.